Location: Killarney Provincial Park Observatory
(46.0124°N, 81.4000°W)
Time: 11:26:30
(UTC-04:00)

Iridium 22 - Visible Passes

Search period start: 24 October 2014 00:00
Search period end: 02 November 2014 23:00
Orbit: 776 x 779 km, 86.4° (Epoch: 23 October)

Date Brightness Start Highest point End Pass type
(mag) Time Alt. Az. Time Alt. Az. Time Alt. Az.
24 Oct 6.7 06:21:41 10° N 06:26:43 46° E 06:31:42 10° SSE visible
24 Oct 5.5 19:20:52 10° S 19:26:04 89° E 19:31:19 10° N visible
24 Oct 8.7 21:05:19 10° W 21:07:35 13° WNW 21:09:51 10° NW visible
25 Oct 7.7 05:48:34 10° NNE 05:52:58 27° ENE 05:57:21 10° SE visible
25 Oct 5.7 18:47:36 10° SSE 18:52:37 50° E 18:57:39 10° NNE visible
25 Oct 8.0 20:29:39 10° SW 20:33:39 22° WNW 20:37:39 10° NNW visible
26 Oct 8.4 05:15:57 10° NNE 05:19:06 16° ENE 05:22:13 10° ESE visible
26 Oct 5.5 06:55:12 10° N 07:00:25 72° W 07:05:35 10° S visible
26 Oct 7.1 19:55:03 10° SSW 19:59:51 37° W 20:04:41 10° NNW visible
27 Oct 6.0 06:21:40 10° N 06:26:53 65° E 06:32:02 10° SSE visible
27 Oct 6.0 19:21:01 10° SSW 19:26:11 66° W 19:31:23 10° N visible
28 Oct 7.0 05:48:23 10° NNE 05:53:13 37° E 05:58:01 10° SSE visible
28 Oct 5.5 18:47:29 10° S 18:52:39 72° E 18:57:51 10° N visible
28 Oct 8.5 20:30:50 10° WSW 20:33:58 16° WNW 20:37:07 10° NNW visible
29 Oct 7.9 05:15:24 10° NNE 05:19:25 22° ENE 05:23:24 10° SE visible
29 Oct 5.7 06:55:25 10° NNW 07:00:27 51° W 07:05:27 10° SSW visible
29 Oct 7.7 19:55:42 10° SW 20:00:05 27° WNW 20:04:30 10° NNW visible
30 Oct 8.6 04:43:13 10° NE 04:45:28 13° ENE 04:47:43 10° E visible
30 Oct 5.5 06:21:44 10° N 06:26:59 89° W 06:32:12 10° S visible
30 Oct 6.7 19:21:21 10° SSW 19:26:20 46° W 19:31:22 10° N visible
31 Oct 6.3 05:48:18 10° N 05:53:24 52° E 05:58:28 10° SSE visible
31 Oct 6.7 07:29:53 10° NNW 07:33:42 21° W 07:37:31 10° SW visible
31 Oct 5.7 18:47:31 10° S 18:52:44 82° W 18:57:58 10° N visible
31 Oct 8.7 20:32:47 10° W 20:34:20 11° WNW 20:35:54 10° NW visible
01 Nov 7.3 05:15:06 10° NNE 05:19:41 30° ENE 05:24:13 10° SE visible
01 Nov 6.0 06:55:42 10° NNW 07:00:26 36° W 07:05:09 10° SSW visible
01 Nov 8.2 19:56:38 10° WSW 20:00:22 20° WNW 20:04:07 10° NNW visible
02 Nov 8.1 03:42:20 10° NNE 03:45:49 18° ENE 03:49:17 10° ESE visible
02 Nov 5.4 05:21:53 10° N 05:27:03 64° W 05:32:11 10° S visible
02 Nov 7.4 18:21:52 10° SW 18:26:32 33° WNW 18:31:15 10° NNW visible
